• In Belarus
  • List of Countries
  • For 7 days
  • Water Temperature
  • Weather Map
  • Weather Widgets
  • user-avatar
    Login

    Hourly Weather Stepanakert

    Today, 8 April, Wednesday

    Time Temperature Precipitation Wind Pressure Humidity
    00:00 -1°C° 0.4 mm 1 mps 700 mmHg 97%
    01:00 -1°C° 0.2 mm 1 mps 700 mmHg 97%
    02:00 -1°C° 0.2 mm 1 mps 700 mmHg 97%
    03:00 -1°C° 0.2 mm 1 mps 700 mmHg 97%
    04:00 -1°C° 0.1 mm 1 mps 700 mmHg 96%
    05:00 -2°C° 0.1 mm 1 mps 701 mmHg 95%
    06:00 -2°C° 0.1 mm 1 mps 701 mmHg 95%
    07:00 -1°C° 0.2 mm 1 mps 701 mmHg 94%
    08:00 -2°C° 0.2 mm 2 mps 702 mmHg 93%
    09:00 -1°C° 0.2 mm 2 mps 702 mmHg 92%
    10:00 -1°C° 0.2 mm 2 mps 701 mmHg 91%
    11:00 +1°C° 0.2 mm 2 mps 701 mmHg 91%
    12:00 +1°C° 0.2 mm 2 mps 701 mmHg 91%
    13:00 +2°C° 0.1 mm 2 mps 700 mmHg 90%
    14:00 +2°C° 0.1 mm 2 mps 700 mmHg 90%
    15:00 +2°C° 0.1 mm 2 mps 700 mmHg 89%
    16:00 +3°C° 0.1 mm 1 mps 699 mmHg 90%
    17:00 +2°C° 0.1 mm 1 mps 699 mmHg 90%
    18:00 +2°C° 0.1 mm 1 mps 699 mmHg 91%
    19:00 +2°C° 0 mm 1 mps 699 mmHg 91%
    20:00 0°C° 0 mm 0 mps 699 mmHg 91%
    21:00 0°C° 0 mm 0 mps 699 mmHg 92%
    22:00 0°C° 0 mm 0 mps 698 mmHg 91%
    23:00 -1°C° 0 mm 0 mps 698 mmHg 90%

    Tomorrow, 9 April, Thursday

    Time Temperature Precipitation Wind Pressure Humidity
    00:00 0°C° 0 mm 1 mps 697 mmHg 90%
    01:00 -1°C° 0 mm 0 mps 697 mmHg 89%
    02:00 -1°C° 0 mm 0 mps 696 mmHg 89%
    03:00 -2°C° 0 mm 0 mps 695 mmHg 88%
    04:00 -2°C° 0 mm 0 mps 695 mmHg 87%
    05:00 -1°C° 0 mm 0 mps 695 mmHg 86%
    06:00 -1°C° 0 mm 0 mps 694 mmHg 85%
    07:00 0°C° 0 mm 0 mps 694 mmHg 84%
    08:00 +2°C° 0 mm 1 mps 694 mmHg 83%
    09:00 +3°C° 0 mm 1 mps 694 mmHg 82%
    10:00 +4°C° 0 mm 1 mps 693 mmHg 82%
    11:00 +5°C° 0 mm 1 mps 693 mmHg 82%
    12:00 +6°C° 0 mm 1 mps 692 mmHg 83%
    13:00 +6°C° 0 mm 1 mps 692 mmHg 83%
    14:00 +7°C° 0 mm 1 mps 691 mmHg 83%
    15:00 +7°C° 0 mm 1 mps 690 mmHg 84%
    16:00 +6°C° 0 mm 1 mps 690 mmHg 86%
    17:00 +6°C° 0 mm 1 mps 690 mmHg 89%
    18:00 +5°C° 0 mm 0 mps 690 mmHg 91%
    19:00 +4°C° 0 mm 0 mps 690 mmHg 92%
    20:00 +4°C° 0 mm 0 mps 690 mmHg 92%
    21:00 +3°C° 0 mm 0 mps 690 mmHg 92%
    22:00 +3°C° 0 mm 0 mps 690 mmHg 92%
    23:00 +4°C° 0 mm 0 mps 690 mmHg 91%

    Day after tomorrow, 10 April, Friday

    Time Temperature Precipitation Wind Pressure Humidity
    00:00 +4°C° 0 mm 0 mps 690 mmHg 91%
    01:00 +4°C° 0 mm 0 mps 690 mmHg 91%
    02:00 +4°C° 0 mm 0 mps 689 mmHg 91%
    03:00 +4°C° 0 mm 1 mps 689 mmHg 91%
    04:00 +3°C° 0 mm 0 mps 689 mmHg 90%
    05:00 +3°C° 0 mm 0 mps 689 mmHg 90%
    06:00 +3°C° 0 mm 0 mps 689 mmHg 89%
    07:00 +4°C° 0 mm 0 mps 689 mmHg 86%
    08:00 +7°C° 0 mm 1 mps 689 mmHg 83%
    09:00 +8°C° 0 mm 1 mps 689 mmHg 80%
    10:00 +9°C° 0 mm 1 mps 689 mmHg 79%
    11:00 +9°C° 0 mm 1 mps 689 mmHg 78%
    12:00 +9°C° 0 mm 2 mps 688 mmHg 76%
    13:00 +9°C° 0 mm 2 mps 688 mmHg 76%
    14:00 +11°C° 0 mm 1 mps 687 mmHg 76%
    15:00 +11°C° 0 mm 1 mps 687 mmHg 75%
    16:00 +10°C° 0 mm 1 mps 687 mmHg 79%
    17:00 +9°C° 0 mm 1 mps 687 mmHg 82%
    18:00 +9°C° 0 mm 1 mps 687 mmHg 85%
    19:00 +8°C° 0.1 mm 1 mps 687 mmHg 86%
    20:00 +8°C° 0.1 mm 1 mps 688 mmHg 87%
    21:00 +8°C° 0.1 mm 1 mps 688 mmHg 88%
    22:00 +7°C° 0 mm 1 mps 688 mmHg 88%
    23:00 +7°C° 0 mm 1 mps 688 mmHg 88%

    11 April, Saturday

    Time Temperature Precipitation Wind Pressure Humidity
    00:00 +7°C° 0 mm 1 mps 688 mmHg 88%
    01:00 +6°C° 0 mm 0 mps 687 mmHg 87%
    02:00 +6°C° 0 mm 0 mps 687 mmHg 86%
    03:00 +5°C° 0 mm 0 mps 687 mmHg 86%
    04:00 +5°C° 0 mm 0 mps 687 mmHg 86%
    05:00 +5°C° 0 mm 0 mps 687 mmHg 87%
    06:00 +5°C° 0 mm 0 mps 687 mmHg 87%
    07:00 +7°C° 0 mm 1 mps 687 mmHg 82%
    08:00 +8°C° 0 mm 1 mps 687 mmHg 77%
    09:00 +10°C° 0 mm 1 mps 688 mmHg 71%
    10:00 +9°C° 0 mm 2 mps 687 mmHg 73%
    11:00 +10°C° 0 mm 2 mps 687 mmHg 74%
    12:00 +10°C° 0 mm 2 mps 687 mmHg 76%
    13:00 +10°C° 0 mm 2 mps 687 mmHg 78%
    14:00 +10°C° 0 mm 2 mps 687 mmHg 80%
    15:00 +10°C° 0 mm 2 mps 687 mmHg 82%
    16:00 +9°C° 0 mm 2 mps 687 mmHg 84%
    17:00 +10°C° 0 mm 1 mps 687 mmHg 87%
    18:00 +9°C° 0 mm 1 mps 687 mmHg 89%
    19:00 +9°C° 0 mm 1 mps 688 mmHg 89%
    20:00 +9°C° 0 mm 1 mps 688 mmHg 89%
    21:00 +9°C° 0 mm 1 mps 689 mmHg 90%
    22:00 +8°C° 0.1 mm 1 mps 689 mmHg 90%
    23:00 +8°C° 0.1 mm 1 mps 689 mmHg 91%

    12 April, Sunday

    Time Temperature Precipitation Wind Pressure Humidity
    00:00 +8°C° 0.1 mm 1 mps 689 mmHg 91%
    01:00 +8°C° 0.3 mm 1 mps 689 mmHg 92%
    02:00 +8°C° 0.3 mm 1 mps 689 mmHg 93%
    03:00 +8°C° 0.3 mm 1 mps 690 mmHg 94%
    04:00 +8°C° 0.2 mm 1 mps 690 mmHg 94%
    05:00 +8°C° 0.2 mm 1 mps 690 mmHg 94%
    06:00 +7°C° 0.2 mm 1 mps 691 mmHg 93%
    07:00 +7°C° 0.3 mm 1 mps 691 mmHg 93%
    08:00 +8°C° 0.3 mm 1 mps 691 mmHg 92%
    09:00 +8°C° 0.3 mm 1 mps 692 mmHg 92%
    10:00 +8°C° 0.3 mm 1 mps 692 mmHg 90%
    11:00 +8°C° 0.3 mm 1 mps 692 mmHg 87%
    12:00 +9°C° 0.3 mm 1 mps 692 mmHg 85%
    13:00 +9°C° 0.2 mm 1 mps 692 mmHg 85%
    14:00 +9°C° 0.2 mm 1 mps 692 mmHg 85%
    15:00 +9°C° 0.2 mm 1 mps 692 mmHg 85%
    16:00 +8°C° 0.1 mm 1 mps 692 mmHg 87%
    17:00 +8°C° 0.1 mm 1 mps 692 mmHg 88%
    18:00 +8°C° 0.1 mm 1 mps 692 mmHg 90%
    19:00 +8°C° 0.1 mm 1 mps 693 mmHg 90%
    20:00 +7°C° 0.1 mm 1 mps 694 mmHg 90%
    21:00 +7°C° 0.1 mm 1 mps 694 mmHg 90%
    22:00 +7°C° 0.1 mm 1 mps 694 mmHg 91%
    23:00 +6°C° 0.1 mm 0 mps 695 mmHg 91%

    13 April, Monday

    Time Temperature Precipitation Wind Pressure Humidity
    00:00 +6°C° 0.1 mm 0 mps 695 mmHg 91%
    01:00 +5°C° 0.1 mm 0 mps 695 mmHg 91%
    02:00 +6°C° 0.1 mm 1 mps 695 mmHg 91%
    03:00 +6°C° 0.1 mm 1 mps 695 mmHg 91%
    04:00 +6°C° 0.1 mm 1 mps 695 mmHg 91%
    05:00 +5°C° 0.1 mm 0 mps 695 mmHg 90%
    06:00 +5°C° 0.1 mm 0 mps 696 mmHg 89%
    07:00 +6°C° 0 mm 1 mps 696 mmHg 87%
    08:00 +7°C° 0 mm 1 mps 696 mmHg 84%
    09:00 +7°C° 0 mm 2 mps 696 mmHg 81%
    10:00 +7°C° 0 mm 2 mps 696 mmHg 80%
    11:00 +8°C° 0 mm 2 mps 696 mmHg 80%
    12:00 +8°C° 0 mm 2 mps 696 mmHg 79%
    13:00 +8°C° 0 mm 2 mps 695 mmHg 80%
    14:00 +9°C° 0 mm 2 mps 695 mmHg 81%
    15:00 +9°C° 0 mm 2 mps 695 mmHg 82%
    16:00 +8°C° 0 mm 2 mps 695 mmHg 84%
    17:00 +9°C° 0 mm 1 mps 695 mmHg 86%
    18:00 +9°C° 0 mm 1 mps 695 mmHg 88%
    19:00 +8°C° 0 mm 1 mps 695 mmHg 90%
    20:00 +8°C° 0 mm 1 mps 695 mmHg 91%
    21:00 +7°C° 0 mm 0 mps 695 mmHg 93%
    22:00 +7°C° 0 mm 0 mps 695 mmHg 93%
    23:00 +6°C° 0 mm 0 mps 695 mmHg 92%
    Show more